TimeCST,TemperatureF,Dew PointF,Humidity,Sea Level PressureIn,VisibilityMPH,Wind Direction,Wind SpeedMPH,Gust SpeedMPH,PrecipitationIn,Events,Conditions,WindDirDegrees,DateUTC
12:56 AM,14.0,10.0,84,30.02,-9999.0,NW,12.7,-,N/A,,Unknown,310,2013-02-22 06:56:00
1:56 AM,14.0,10.0,84,30.05,-9999.0,NW,11.5,-,N/A,,Unknown,320,2013-02-22 07:56:00
2:56 AM,12.0,8.1,84,30.04,-9999.0,NW,11.5,-,N/A,,Unknown,320,2013-02-22 08:56:00
3:56 AM,10.9,7.0,84,30.04,-9999.0,NW,9.2,-,N/A,,Unknown,320,2013-02-22 09:56:00
4:56 AM,10.0,6.1,84,30.08,-9999.0,WNW,8.1,-,N/A,,Unknown,290,2013-02-22 10:56:00
5:56 AM,8.1,5.0,87,30.09,-9999.0,NNW,9.2,-,N/A,,Unknown,330,2013-02-22 11:56:00
6:56 AM,8.1,5.0,87,30.10,-9999.0,NW,9.2,-,N/A,,Unknown,320,2013-02-22 12:56:00
7:56 AM,10.0,5.0,80,30.12,-9999.0,NW,11.5,-,N/A,,Unknown,320,2013-02-22 13:56:00
8:56 AM,12.9,6.1,74,30.16,-9999.0,NNW,8.1,-,N/A,,Unknown,330,2013-02-22 14:56:00
9:56 AM,-9999,-9999,N/A,30.17,-9999.0,NNW,6.9,-,N/A,,Unknown,330,2013-02-22 15:56:00
10:56 AM,-9999,-9999,N/A,30.18,-9999.0,WNW,8.1,-,N/A,,Unknown,300,2013-02-22 16:56:00
11:56 AM,-9999,-9999,N/A,30.20,-9999.0,West,6.9,-,N/A,,Unknown,270,2013-02-22 17:56:00
12:56 PM,-9999,-9999,N/A,30.19,-9999.0,NW,8.1,-,N/A,,Unknown,320,2013-02-22 18:56:00
1:56 PM,24.1,-9999,N/A,30.16,-9999.0,NW,8.1,-,N/A,,Unknown,320,2013-02-22 19:56:00
2:56 PM,-9999,-9999,N/A,30.14,-9999.0,NW,10.4,-,N/A,,Unknown,320,2013-02-22 20:56:00
3:56 PM,-9999,-9999,N/A,30.14,-9999.0,NW,8.1,-,N/A,,Unknown,320,2013-02-22 21:56:00
4:56 PM,24.1,15.1,69,30.14,-9999.0,West,5.8,-,N/A,,Unknown,280,2013-02-22 22:56:00
5:56 PM,21.9,15.1,75,30.14,-9999.0,West,3.5,-,N/A,,Unknown,270,2013-02-22 23:56:00
6:56 PM,19.0,12.9,77,30.16,-9999.0,WNW,4.6,-,N/A,,Unknown,300,2013-02-23 00:56:00
7:56 PM,17.1,12.9,84,30.17,-9999.0,Calm,Calm,-,N/A,,Unknown,0,2013-02-23 01:56:00
8:56 PM,12.0,10.0,92,30.18,-9999.0,Calm,Calm,-,N/A,,Unknown,0,2013-02-23 02:56:00
9:56 PM,9.0,6.1,88,30.18,-9999.0,Calm,Calm,-,N/A,,Unknown,0,2013-02-23 03:56:00
10:56 PM,7.0,5.0,92,30.18,-9999.0,North,4.6,-,N/A,,Unknown,10,2013-02-23 04:56:00
11:56 PM,3.9,1.9,91,30.17,-9999.0,North,3.5,-,N/A,,Unknown,360,2013-02-23 05:56:00